User: anonymous   Login
Location: Cluj-Napoca
(46.7712°N, 23.6236°E)
Time: 13:09:37
(UTC+02:00)
Language:

TIGRISAT - Orbit

View from above orbital plane
View from above orbital plane
View from above satellite
View from above satellite

Ground track
Ground track

The orbit data is extracted from the following two-line orbital elements,

1 40043U 14033AK  21334.50302182  .00000347  00000-0  57687-4 0  9997
2 40043  97.6588 169.4890 0061037  81.0050 279.8062 14.74644184400601
Epoch (UTC): 30 November 2021 12:04:21
Eccentricity: 0.0061037
inclination: 97.6588°
perigee height: 603 km
apogee height: 689 km
right ascension of ascending node: 169.4890°
argument of perigee: 81.0050°
revolutions per day: 14.74644184
mean anomaly at epoch: 279.8062°
orbit number at epoch: 40060

The dashed part of the orbit path shows where the satellite is in the earth's shadow,  

DLR